{"data":{"norad_id":69579,"intl_designator":"2026-137H","name":"HULIANWANG DIGUI-176","alt_names":[],"object_type":"PAYLOAD","status":"ACTIVE","operator":null,"country":"PRC","launch_date":"2026-06-17","launch_site_code":"WSC","launch_vehicle":null,"mission":null,"orbit_class":"UNKNOWN","rcs_meters":null,"size_class":null,"mass_kg":null,"dimensions":null,"purposes":[],"wikipedia_slug":null,"has_3d_model":false,"image_url":null,"decayed_at":null,"tle_current":{"epoch":"2026-09-20T01:22:48.703296Z","epoch_age_seconds":67278,"freshness":"FRESH","line1":"1 69579U 26137H   26263.05750814 -.00000081  00000+0  92353-4 0  9999","line2":"2 69579  49.9995 255.3726 0000335 347.2936  12.7927 13.29325250 12955","mean_motion":13.2932525,"eccentricity":3.35e-5,"inclination_deg":49.9995,"raan_deg":255.3726,"arg_perigee_deg":347.2936,"mean_anomaly_deg":12.7927,"bstar":9.2353e-5,"rev_number":1295,"period_min":108.32563362503,"perigee_km":1149.0572337014,"apogee_km":1149.5615726104,"semimajor_km":7527.4464031559,"source":"CELESTRAK","updated_at":"2026-09-20T09:00:24.994846Z"}}}